Location: Lamoine Observatory
(44.4551°N, 68.3470°W)
Time: 20:08:44
(UTC-04:00)

Daily predictions for brighter satellites

Satellite Brightness Start Highest point End
(mag) Time Altitude Azimuth Time Altitude Azimuth Time Altitude Azimuth
Cosmos 1980 Rocket 4.2 20:34:35 10° N 20:38:07 16° NE 20:41:37 10° E
Spot 1 4.1 20:35:39 10° SSE 20:40:05 88° W 20:44:18 10° NNW
Nadezhda 1 Rocket 4.1 20:36:07 10° S 20:42:26 70° E 20:48:49 10° NNE
Cosmos 2112 Rocket 4.2 20:39:13 10° SSW 20:44:27 82° WNW 20:49:41 10° NNE
ARGOS 4.2 20:40:12 10° SE 20:44:54 31° ENE 20:49:37 10° N
Cosmos 192 4.4 20:43:14 10° SSW 20:48:08 88° WNW 20:53:04 10° NNE
Helios 1A 3.4 20:44:20 10° S 20:48:31 65° WSW 20:52:42 10° NNW
Cosmos 1624 Rocket 4.1 20:44:08 10° NNW 20:49:26 70° ENE 20:54:43 10° SSE
Cosmos 405 Rocket 4.1 20:49:11 10° SSW 20:52:48 42° WNW 20:56:31 10° N
Cosmos 2228 4.2 20:51:45 10° NNE 20:55:25 26° ENE 20:58:56 10° SE
Cosmos 921 Rocket 3.5 20:51:40 10° N 20:56:01 47° ENE 21:00:13 10° SE
SL-27 R/B 3.6 20:54:27 10° SW 20:58:00 50° WNW 21:01:34 10° N
Cosmos 1441 Rocket 3.5 20:55:15 10° SSW 20:58:57 68° WNW 21:02:42 10° N
NOAA 11 4.4 20:54:42 10° SSE 20:59:59 56° ENE 21:05:18 10° N
Cosmos 2154 Rocket 4.1 20:53:47 10° N 21:00:10 75° E 21:06:30 10° SSE
H-2A R/B 3.3 20:57:32 10° ESE 21:01:38 26° ENE 21:05:49 10° N
Helios 1B rocket 2.9 20:57:34 10° N 21:01:41 65° WNW 21:05:47 10° SSW
Tiangong 2 1.1 21:00:34 10° WSW 21:03:43 64° S 21:06:53 10° E
Aureole 1 Rocket 4.2 21:05:44 10° SW 21:08:34 32° WNW 21:11:18 10° N
Meteor 1-23 Rocket 4.3 21:02:59 10° S 21:08:35 86° WNW 21:14:15 10° N
Cosmos 2056 Rocket 3.5 21:03:55 10° NNW 21:09:07 86° WSW 21:14:14 10° SSE
Cosmos 967 Rocket 4.4 21:03:36 10° SSW 21:09:48 71° ESE 21:16:05 10° NE
Cosmos 839 Rocket 4.4 21:04:56 10° NNW 21:11:28 85° ENE 21:18:51 12° SE
Envisat 4.2 21:06:46 10° SSW 21:11:33 41° W 21:16:22 10° NNW
Cosmos 1892 Rocket 3.7 21:12:48 10° S 21:17:09 58° E 21:21:29 10° NNE
Lacrosse 5 rocket 3.9 21:13:48 10° NW 21:17:11 20° NNE 21:20:35 10° ENE
Cosmos 2082 Rocket 2.6 21:12:24 10° S 21:17:40 41° ESE 21:22:56 10° NE
Cosmos 2278 3.7 21:12:28 10° NNW 21:18:13 82° ENE 21:23:15 14° SSE
Terra 3.5 21:16:37 11° ESE 21:19:54 20° ENE 21:23:21 10° NNE
Meteor 1-4 Rocket 3.7 21:18:49 10° NNE 21:21:58 28° ENE 21:23:57 17° ESE
YAOGAN 6 3.6 21:20:43 10° S 21:24:04 42° W 21:27:26 10° NNW
Cosmos 1606 Rocket 3.7 21:21:57 10° NNW 21:26:17 75° W 21:30:35 10° S
Okean 2 3.7 21:22:49 10° SSW 21:26:52 66° W 21:30:57 10° N
SPOT 5 2.6 21:28:06 16° SSE 21:31:30 70° ENE 21:35:54 10° N
Cosmos 1025 Rocket 4.1 21:28:10 10° SSW 21:32:15 45° WNW 21:36:23 10° N
Cosmos 1656 3.6 21:27:22 10° NNW 21:32:51 77° ENE 21:37:02 18° SSE
Cosmos 1697 Rocket 3.0 21:28:16 10° NNW 21:33:49 57° ENE 21:37:54 18° SE
MOS 1-B Rocket 4.1 21:29:13 11° SSE 21:34:53 82° WSW 21:41:38 10° NNW
Cosmos 1726 Rocket 3.7 21:30:53 10° NNW 21:35:12 72° W 21:39:07 12° S
NOSS 8 (H) 4.4 21:31:58 10° SSW 21:35:18 61° ESE 21:38:51 10° NE
Cosmos 2341 Rocket 4.1 21:29:43 10° N 21:36:06 82° W 21:42:29 10° S
SL-24 DEB 4.2 21:33:57 15° SSE 21:37:48 75° E 21:42:28 10° N
Cosmos 2369 3.9 21:33:04 10° NNW 21:38:48 71° WSW 21:43:25 16° SSE
Cosmos 1452 Rocket 3.5 21:35:37 10° NNW 21:40:55 76° ENE 21:44:39 20° SSE
Timation 2 Rocket 4.4 21:35:21 10° S 21:41:12 39° ESE 21:46:51 10° NE
SL-08 RB Rocket 3.6 21:38:11 18° SSE 21:41:25 74° ENE 21:45:54 10° N
COSMOS 2487 2.5 21:39:05 10° SSW 21:42:39 81° WNW 21:46:15 10° NNE
SL-16 R/B 4.1 21:39:12 10° N 21:43:10 19° NE 21:47:06 10° E
Cosmos 2218 Rocket 4.1 21:38:15 10° N 21:44:23 62° E 21:48:53 19° SSE
MetOp-A 4.5 21:41:22 12° S 21:46:20 64° WSW 21:51:41 10° NNW
ERS-1 Rocket 3.8 21:41:50 10° S 21:46:38 46° W 21:51:28 10° NNW
USA 245 2.1 21:47:18 34° S 21:48:08 68° WSW 21:50:24 10° NNW
Cosmos 1833 Rocket 2.6 21:45:01 10° SSW 21:50:35 70° ESE 21:56:12 10° NNE
Nimbus 7 Rocket 4.5 21:45:27 10° NNE 21:51:31 68° ESE 21:57:18 11° S
SPOT 1/Viking Rocket 3.5 21:49:30 20° SSE 21:53:09 82° ENE 21:58:20 10° NNW
ISS -1.6 21:50:49 10° WNW 21:53:44 28° NNW 21:56:39 10° NE
Cosmos 2058 Rocket 3.5 21:50:41 10° NNW 21:55:03 60° W 21:58:31 16° S
IGS 5A 4.3 21:56:06 24° ESE 21:57:57 37° ENE 22:01:49 10° N
ATLAS CENTAUR R/B 3.5 21:57:26 10° N 21:59:47 16° NE 22:02:07 10° ENE
Iridium 43 4.2 21:58:01 10° NNW 22:00:12 46° W 22:00:46 35° SW
Cosmos 1271 Rocket 3.6 22:00:27 10° N 22:04:06 36° ENE 22:05:23 28° ESE
Cosmos 1842 4.2 22:03:31 27° ESE 22:04:19 29° E 22:07:46 10° NNE
Cosmos 2181 Rocket 4.4 22:00:07 10° SSW 22:06:25 64° W 22:12:40 10° N
USA 229 DEB 3.9 22:00:17 10° NW 22:07:26 72° NE 22:12:16 23° SE
USA 229 3.9 22:00:23 10° NW 22:07:31 71° NE 22:12:23 23° SE
Cosmos 468 4.4 22:05:25 13° SSW 22:10:04 77° ESE 22:15:23 10° NNE
Cosmos 1066 Rocket 4.3 22:06:49 12° SSW 22:11:56 80° WNW 22:17:38 10° N
Meteor 2-21 4.4 22:06:42 10° N 22:12:47 89° W 22:16:42 23° S
H-2A R/B 2.4 22:11:41 31° SE 22:13:41 58° ENE 22:18:09 10° N
Cosmos 1544 3.8 22:10:59 10° N 22:14:22 36° ENE 22:15:06 32° ESE
Cosmos 1812 Rocket 3.6 22:10:00 10° N 22:14:28 66° E 22:16:19 34° SSE
Meteor 2-21 Rocket 4.4 22:11:32 10° N 22:17:37 82° E 22:21:10 26° SSE
Cosmos 2360 Rocket 4.4 22:17:32 10° N 22:21:00 16° NE 22:24:27 10° E
Cosmos 158 Rocket 4.0 22:19:00 24° S 22:22:09 65° ESE 22:27:30 10° NNE
Cosmos 1980 Rocket 2.1 22:17:21 10° NNW 22:23:03 83° ENE 22:25:49 31° SSE
Cosmos 1626 Rocket 3.6 22:21:47 24° SSW 22:24:18 75° W 22:28:39 10° N
ARGOS 4.2 22:20:50 14° SSW 22:25:01 39° W 22:30:05 10° NNW
CZ-4 R/B 4.3 22:22:35 10° NNE 22:27:26 47° E 22:29:04 34° SSE
Orbus 7S? 4.0 22:24:21 10° NW 22:31:34 66° NE 22:33:11 33° ESE
CZ-4B R/B 3.9 22:28:49 10° NNE 22:33:44 45° E 22:35:16 35° SE
Cosmos 1953 3.0 22:30:44 10° N 22:34:37 41° ENE 22:35:24 37° ESE
Cosmos 2322 Rocket 3.1 22:29:25 10° NNW 22:34:48 40° ENE 22:37:39 24° ESE
Cosmos 1953 Rocket 4.3 22:37:25 33° ESE 22:38:02 35° E 22:42:06 10° NNE
Cosmos 1825 Rocket 3.8 22:37:25 42° SE 22:38:13 48° E 22:42:23 10° NNE
Tiangong 2 2.2 22:37:15 10° W 22:39:21 33° WSW 22:39:21 33° WSW
H-2A R/B 2.9 22:38:01 21° SSW 22:40:50 41° W 22:45:39 10° NNW
Cosmos 1766 3.6 22:37:37 10° NNW 22:41:29 58° W 22:42:36 40° SSW
Landsat 7 4.4 22:40:01 28° SSW 22:42:15 50° W 22:46:54 10° NNW
Meteor 1-21 4.2 22:41:30 27° SSW 22:44:47 86° W 22:50:36 10° N
PSLV R/B 3.2 22:46:03 64° NNW 22:46:03 64° NNW 22:48:32 10° NNW
SL-19 R/B 4.2 22:47:43 55° SSE 22:48:34 89° ENE 22:52:15 10° NNW
CZ-2C R/B 4.2 22:48:06 10° NE 22:52:15 21° E 22:52:59 20° ESE
Cosmos 1470 3.5 22:52:51 10° N 22:56:38 39° ENE 22:56:59 38° E
Terra 2.4 22:55:30 33° SSW 22:57:16 51° W 23:01:55 10° NNW
Lacrosse 5 rocket 2.4 22:52:53 10° NW 22:57:25 48° NE 22:59:32 28° E
Cosmos-2242 3.8 22:55:51 10° N 22:59:52 37° ENE 23:00:26 35° E
Cosmos 2082 Rocket 3.8 22:56:43 10° WSW 23:01:49 34° NW 23:06:56 10° N
Cosmos 1707 4.0 23:04:25 29° E 23:04:25 29° E 23:07:25 10° NNE
Meteor 2-8 Rocket 4.4 23:01:41 35° S 23:04:29 87° E 23:10:41 10° N
Cosmos 1805 3.7 23:06:22 10° NNW 23:10:10 50° W 23:10:42 46° WSW
deb Chang Zheng 4 4.3 23:08:30 10° N 23:12:41 49° WNW 23:14:27 30° SW
Cosmos 1331 Rocket 3.9 23:08:15 10° NNW 23:13:27 87° ENE 23:14:46 52° SSE
Cosmos 1697 Rocket 4.4 23:13:07 10° NW 23:17:20 22° W 23:19:38 17° SW
Cosmos 1110 Rocket 3.9 23:12:04 10° NNW 23:17:20 78° WSW 23:18:39 51° S
Cosmos 1758 3.6 23:13:45 10° NNW 23:17:38 53° W 23:18:04 50° WSW
Cosmos 389 Rocket 2.9 23:15:18 10° NNW 23:18:31 55° W 23:18:31 55° W
USA 267 3.6 23:15:46 10° ENE 23:21:56 42° SE 23:22:58 40° SSE
Cosmos 1302 Rocket 4.2 23:17:26 10° NNW 23:22:41 62° ENE 23:24:06 45° ESE
Spot 4 4.2 23:21:37 43° SSW 23:22:46 54° W 23:27:30 10° NNW
Lacrosse 5 1.8 23:25:30 58° SSE 23:25:53 60° SE 23:30:54 10° NE
SL-16 R/B 2.1 23:22:19 10° NNW 23:28:02 84° WSW 23:29:33 51° SSE
Cosmos 1934 Rocket 4.0 23:23:28 10° N 23:29:53 90° E 23:32:02 45° S
ISS -1.4 23:28:10 10° NW 23:30:54 24° N 23:33:39 10° ENE
NOSS 3-1 (C) 4.0 23:23:39 10° NW 23:31:13 79° WSW 23:34:52 38° SSE
SeaSat 1 3.2 23:30:49 32° ESE 23:32:33 44° NE 23:37:13 10° NNW
CZ-2C R/B 3.5 23:33:01 41° SE 23:34:39 57° ENE 23:40:15 10° N
ATLAS CENTAUR R/B 1.6 23:35:31 10° NW 23:38:30 50° WNW 23:38:30 50° WNW
CZ-4C R/B 4.5 23:45:30 29° W 23:45:30 29° W 23:48:30 10° NW
Cosmos 1758 Rocket 4.4 23:47:43 36° WSW 23:48:38 41° WNW 23:52:47 10° N
Cosmos 1733 3.8 23:45:09 10° NNW 23:48:41 47° W 23:48:41 47° W
Cosmos 2251 Rocket 3.7 23:47:56 44° SW 23:49:37 72° WNW 23:55:01 10° NNE
H-2A R/B 4.3 23:48:48 14° WSW 23:50:02 16° W 23:52:45 10° NW
Cosmos 1842 Rocket 3.7 23:47:19 10° N 23:51:46 59° E 23:52:04 58° E
Cosmos 972 4.3 23:48:12 10° NNW 23:53:39 85° WSW 23:54:28 64° S
Cosmos 2322 4.1 23:48:48 10° NNW 23:54:23 57° ENE 23:56:13 39° ESE
